Regional Weather Roundup
Issued by NWS

Home | Current Version | Previous Version | Graphics & Text | Print | Product List | Glossary On
Versions: 1 2 3 4 5 6 7 8 9 10 11 12 13 14 15 16 17 18 19 20 21 22 23 24 25 26 27 28 29 30 31 32 33 34 35 36 37 38 39 40 41 42 43 44 45 46 47 48 49 50
476
ASUS43 KIND 231959
RWRIN

WEATHER ROUNDUP FOR INDIANA
NATIONAL WEATHER SERVICE INDIANAPOLIS IN
400 PM EDT TUE AUG 23 2016

NOTE: "FAIR" INDICATES FEW OR NO CLOUDS BELOW 12,000 FEET WITH NO
SIGNIFICANT WEATHER AND/OR OBSTRUCTIONS TO VISIBILITY.

* - STATION DOES NOT REPORT WEATHER SUCH AS PRECIPITATION OR FOG.

+ - STATION NOT QUALITY CONTROLLED BY THE NATIONAL WEATHER SERVICE.
    USE DATA WITH CAUTION...ESPECIALLY DEWPOINT AND RELATIVE
    HUMIDITY OBSERVATIONS.

INZ001>003-010>013-019-020-232100-
NORTHWEST INDIANA

CITY           SKY/WX    TMP DP  RH WIND       PRES   REMARKS
GARY /AIRPORT/ MOSUNNY   72  59  64 S12       30.12F
KNOX *+        MOSUNNY   79  32  18 SW9       30.20F
MONTICELLO +   MOSUNNY   80  55  42 S8        30.20F
RENSSELAER +   PTSUNNY   79  61  53 S8        30.19F

$$

LMZ046-743>745-232100-
SOUTHERN LAKE MICHIGAN

STATION/POSITION TIME  TEMP    WIND        PRES    WAVE
                       AIR SEA DIR/SP/G            HT
                 (UTC) (F)     (DEG/KT/KT) (MB)    (FT)
BURNS HARBOR     1903   78     190/ 14/ 20 1022.4F
MICHIGAN CITY    1900   76     190/ 13/ 17   N/A
5NW MICH CITY    1900   76 73  200/ 10/ 16   N/A     1

$$

INZ004-005-014>016-021>024-232100-
NORTH CENTRAL INDIANA

CITY           SKY/WX    TMP DP  RH WIND       PRES   REMARKS
ELKHART        MOSUNNY   79  59  50 S9        30.21F
GOSHEN         MOSUNNY   78  57  48 S12       30.21F
PERU/GRISSOM   SUNNY     81  60  48 S6        30.21S
SOUTH BEND     PTSUNNY   79  60  52 S13       30.20F

$$

INZ006>009-017-018-025>027-232100-
NORTHEAST INDIANA

CITY           SKY/WX    TMP DP  RH WIND       PRES   REMARKS
ANGOLA *+      PTSUNNY   82  61  47 SW9       30.22F
FORT WAYNE     PTSUNNY   78  58  49 S8        30.23F

$$

INZ028-029-035-036-043>045-051>053-232100-
WEST CENTRAL INDIANA

CITY           SKY/WX    TMP DP  RH WIND       PRES   REMARKS
CRAWFORDSVL +  PTSUNNY   77  62  60 S8        30.21F
GREENCASTLE +  MOSUNNY   79  64  61 S3        30.23F
LAFAYETTE      MOSUNNY   79  61  53 S9        30.20F
TERRE HAUTE    MOSUNNY   81  60  48 S10       30.20F

$$

INZ030>032-037>040-046>048-054>057-064-065-232100-
CENTRAL INDIANA

CITY           SKY/WX    TMP DP  RH WIND       PRES   REMARKS
ANDERSON       PTSUNNY   79  61  53 S12       30.24F
INDIANAPOLIS   PTSUNNY   79  60  52 SE10      30.21F
-EAGLE CREEK   MOSUNNY   79  59  50 S9        30.21F
KOKOMO *+      PTSUNNY   81  59  47 S8        30.22F
MT COMFORT *+  MOSUNNY   77  63  61 S9        30.24F
SHELBYVILLE    MOSUNNY   80  60  50 S13       30.23F

$$

INZ033-034-041-042-049-050-058-059-232100-
EAST CENTRAL INDIANA

CITY           SKY/WX    TMP DP  RH WIND       PRES   REMARKS
MUNCIE         PTSUNNY   80  60  50 VRB7      30.23F

$$

INZ060-061-067>069-081>083-085>088-232100-
SOUTHWEST INDIANA

CITY           SKY/WX    TMP DP  RH WIND       PRES   REMARKS
EVANSVILLE     MOSUNNY   81  61  50 SE6       30.21F
HUNTINGBURG *+ CLOUDY    82  63  51 S9        30.22F

$$

INZ062-063-066-070>080-084-089>092-232100-
SOUTH CENTRAL AND SOUTHEAST INDIANA

CITY           SKY/WX    TMP DP  RH WIND       PRES   REMARKS
BLOOMINGTON    SUNNY     81  60  48 S10       30.22F
MADISON *+     SUNNY     81  57  44 S7        30.25F

$$





USA.gov is the U.S. government's official web portal to all federal, state and local government web resources and services.